STARLINK-5143, 54089

Orbit data source: Space-Track

STARLINK-5143, 54089 is a payload satellite owned by SpaceX/Seattle (US) in LEO that was launched on Thu, 20 Oct 2022 UTC via an FALCON 9 launch vehicle from the Air Force Eastern Test Range (AFETR). Payload-class satellites include a variety of spacecraft equipped with specific instruments for various scientific and technological missions. These include communications satellites like Starlink; space stations such as the ISS; scientific satellites like the Hubble; Earth observation satellites from companies like Planet Labs, Umbra, and HawkEye 360; GPS; miniature CubeSats for education and research; and military/defense satellites.

Loading next visibility...
Identifier
54089, 2022-136AQ
Orbit
LEO
Country
Flag of USUS
Related business
Manufacturer
SpaceX/Seattle
Mission
Operational Commercial Communications
Bus & Motor
STARLINK, Unknown motor
Mass
305 kg wet, ~290 kg dry
Launch date (UTC)
2022-10-20 (3 years ago)
Launch vehicle
FALCON 9
Launch site
Air Force Eastern Test Range (AFETR)
Object type
Payload
Rocket body
Debris
Shape & HBR
Box + 1 Pan, 10.1 m
Radar Cross Section
13.562 m², Large (>1 m²)

Expand to show TLE details & history
Last TLE update: 14 hours ago

TLE from 14 hours ago
0 STARLINK-5143
1 54089U 22136AQ  25303.97658826 -.00000366  00000-0 -49254-5 0  9990
2 54089  53.2177 196.2941 0001422  99.6512 260.4641 15.08844670167400
Epoch: 2025-10-30T23:26Z
TLE epoch observation values (Epoch: 2025-10-30T23:26:17.225Z)
Latitude
-0.00002°
Longitude
165.19467°
Altitude
540.79 km
Speed
7.593 km/s
True Right ascension
13h 05m 10s
True Declination
0° 00' 00"
Sunlit
Object was in daylight at epoch
Visualization orbit readout
Latitude
Unknown
Longitude
Unknown
Altitude
Unknown
Speed
Unknown
Apparent Right ascension
Unknown
Apparent Declination
Unknown
Sunlit
N/A
Visualization observer readout
Local Sidereal Time
08:57:09
Azimuth
Unknown
Elevation
Unknown
Doppler factor
Unknown
Orbital elements
Apogee altitude
540.958 km
Perigee altitude
538.99 km
Semi-major axis
6,918.111 km
Eccentricity
0.00014
Inclination
53.2177°
RAAN
196.2941°
Arg. of periapsis
99.6512°
True anomaly
260.44803°
Mean anomaly
260.4641°
Eccentric anomaly
260.45607°
Mean motion
3.77191 °/min
Orbital period
95.44 mins
BSTAR
-0.0000049254
Loading maneuver chart data...
Computing Atmospheric mass density...
Loading historical data...
Loading historical data...
Loading historical data...
Loading historical data...
Loading historical data...
Loading historical data...
Loading historical data...

Documentation

Showing up to 5 results
|